If you wish to contribute or participate in the discussions about articles you are invited to join SKYbrary as a registered user

 Actions

Fukushima Airport

From SKYbrary Wiki

RJSF
Airport
ICAO: RJSF – IATA: FKS
Summary
Name Fukushima Airport
Region Asia and Pacific
Territory Japan JP.gif
Location Sukagawa, Fukushima Prefecture
Serving Sukagawa
Elevation 371.856 m
1,220 ft371.856 m
Coordinates 37° 13' 42.33" N, 140° 25' 43.08" E
Runways
Designator Length Width Surface ROPS
1/19 2500 m8,202.1 ft
60 m196.85 ft
ASP yes/yes


METAR
Observation RJSF 210700Z 36009KT 9999 FEW040 09/M03 Q1031
Station Fukushima Airport
Date/Time 21 February 2020 07:00:00
Wind direction 360°
Wind speed 09 kts
Lowest cloud amount few clouds
Temperature 9°C
Dew point
Humidity 42%
QNH 1031 hPa
Weather condition n/a

Airport serving northern and central Fukushima Prefecture, Japan, located in the city of Sukagawa. The airport is located 19.4 km10.475 nm
19,400 m
63,648.294 ft
southeast of Kōriyama.

Climatology

Humid Sub-tropical climate (Köppen climate classification Cfa)

Maps

Terrain

Loading map...

Airport Layout

Loading map...


Accidents & Serious Incidents at or in vicinity of RJSF

None on SKYbrary